Regional Weather Roundup
Issued by NWS

Home | Current Version | Previous Version | Graphics & Text | Print | Product List | Glossary On
Versions: 1 2 3 4 5 6 7 8 9 10 11 12 13 14 15 16 17 18 19 20 21 22 23 24 25 26 27 28 29 30 31 32 33 34 35 36 37 38 39 40 41 42 43 44 45 46 47 48 49 50
000
ASUS45 KCYS 190910
RWRWY

WYOMING REGIONAL WEATHER ROUNDUP
NATIONAL WEATHER SERVICE CHEYENNE WY
300 AM MDT FRI SEP 19 2014

NOTE:  "FAIR" INDICATES FEW OR NO CLOUDS BELOW 12,000 FEET
WITH NO SIGNIFICANT WEATHER AND/OR OBSTRUCTIONS TO VISIBILITY.

WYZ001-191000-
YELLOWSTONE NATIONAL PARK

CITY           SKY/WX    TMP DP  RH WIND       PRES   REMARKS
LK YELLOWSTONE   N/A     43  42  97 CALM      30.15S
W YELLOWSTONE  NOT AVBL

$$
WYZ002>013-054>058-071-098>099-191000-
NORTHERN WYOMING

CITY           SKY/WX    TMP DP  RH WIND       PRES   REMARKS
JACKSON        MOCLDY    48  46  93 SE5       30.07F
CODY             N/A    N/A N/A N/A MISG        N/A
GREYBULL       CLOUDY    62  57  83 NW3       29.90S
WORLAND        LGT RAIN  62  55  77 N10G24    29.90S
SHERIDAN       CLOUDY    61  54  77 W6        29.82F
BUFFALO        CLOUDY    59  52  77 S10       29.93R
GILLETTE       CLOUDY    59  53  80 SW8       29.87F
HULETT         FAIR      63  52  67 MISG      29.89
NEWCASTLE      FAIR      66  45  45 N16       29.83

$$
WYZ014>020-022>026-101>103-191000-
CENTRAL WYOMING

CITY           SKY/WX    TMP DP  RH WIND       PRES   REMARKS
BIG PINEY      CLOUDY    52  48  86 W7        30.10F
PINEDALE       CLOUDY    52  50  93 NW9       30.11F
DUBOIS         FAIR      50  41  71 N20G25    30.05F
LANDER         CLOUDY    62  47  57 SE16      29.97S
RIVERTON       CLOUDY    58  49  72 S6        30.00R
CASPER         MOCLDY    57  47  69 NW8       30.01R
DOUGLAS        PTCLDY    55  47  74 W9        29.96R

$$
WYZ021-027>030-104>119-191000-
SOUTHERN WYOMING

CITY           SKY/WX    TMP DP  RH WIND       PRES   REMARKS
EVANSTON       CLOUDY    53  48  83 E5        30.16R
KEMMERER       CLOUDY    54  43  66 NW5       30.17R
FORT BRIDGER   CLOUDY    55  52  90 S10       30.18F
ROCK SPRINGS   MOCLDY    58  43  57 N13       30.10R
DIXON          FAIR      46  38  74 CALM      30.10R
RAWLINS        PTCLDY    61  36  39 W15       30.06R
SARATOGA       FAIR      52  36  54 CALM      30.09R
LARAMIE        PTCLDY    50  36  58 S9        30.08S
CHEYENNE       CLEAR     55  41  59 SW9       29.99S
TORRINGTON     PTCLDY    60  52  74 SE7       29.81F
PINE BLUFFS    FAIR      55  43  62 S13       29.93S

$$



USA.gov is the U.S. government's official web portal to all federal, state and local government web resources and services.